TimeMDT,TemperatureF,Dew PointF,Humidity,Sea Level PressureIn,VisibilityMPH,Wind Direction,Wind SpeedMPH,Gust SpeedMPH,PrecipitationIn,Events,Conditions,WindDirDegrees,DateUTC
12:51 AM,71.1,48.9,45,29.79,10.0,SSE,10.4,19.6,N/A,,Scattered Clouds,150,2013-05-24 06:51:00
1:51 AM,70.0,48.9,47,29.79,10.0,SSE,9.2,-,N/A,,Scattered Clouds,160,2013-05-24 07:51:00
2:51 AM,68.0,50.0,52,29.79,10.0,South,4.6,-,N/A,,Clear,180,2013-05-24 08:51:00
3:51 AM,66.9,48.9,52,29.79,10.0,South,4.6,-,N/A,,Scattered Clouds,170,2013-05-24 09:51:00
4:51 AM,63.0,48.9,60,29.81,10.0,East,4.6,-,N/A,,Scattered Clouds,100,2013-05-24 10:51:00
5:51 AM,64.9,48.9,56,29.82,10.0,Calm,Calm,-,N/A,,Scattered Clouds,0,2013-05-24 11:51:00
6:51 AM,66.9,48.9,52,29.85,10.0,West,4.6,-,N/A,,Scattered Clouds,270,2013-05-24 12:51:00
7:51 AM,70.0,48.0,46,29.87,10.0,Calm,Calm,-,N/A,,Partly Cloudy,0,2013-05-24 13:51:00
8:51 AM,73.0,48.9,42,29.88,10.0,Variable,5.8,-,N/A,,Partly Cloudy,0,2013-05-24 14:51:00
9:51 AM,77.0,48.0,36,29.88,10.0,South,8.1,-,N/A,,Partly Cloudy,170,2013-05-24 15:51:00
10:51 AM,79.0,46.0,31,29.88,10.0,Variable,4.6,-,N/A,,Partly Cloudy,0,2013-05-24 16:51:00
11:51 AM,84.0,37.9,19,29.86,10.0,East,3.5,-,N/A,,Partly Cloudy,100,2013-05-24 17:51:00
12:51 PM,84.9,32.0,15,29.83,10.0,Calm,Calm,-,N/A,,Scattered Clouds,0,2013-05-24 18:51:00
1:51 PM,88.0,32.0,14,29.80,10.0,Variable,5.8,-,N/A,,Scattered Clouds,0,2013-05-24 19:51:00
2:51 PM,90.0,35.1,14,29.77,10.0,SSE,6.9,-,N/A,,Partly Cloudy,150,2013-05-24 20:51:00
3:51 PM,91.0,34.0,13,29.75,10.0,West,4.6,-,N/A,,Partly Cloudy,260,2013-05-24 21:51:00
4:51 PM,91.9,35.1,13,29.73,10.0,Calm,Calm,-,N/A,,Partly Cloudy,0,2013-05-24 22:51:00
5:51 PM,91.9,37.0,15,29.70,10.0,Calm,Calm,-,N/A,,Partly Cloudy,0,2013-05-24 23:51:00
6:51 PM,91.9,36.0,14,29.69,10.0,SE,5.8,-,N/A,,Scattered Clouds,130,2013-05-25 00:51:00
7:51 PM,87.1,44.1,22,29.72,10.0,SE,15.0,-,N/A,,Scattered Clouds,140,2013-05-25 01:51:00
8:51 PM,82.9,43.0,24,29.77,4.0,South,15.0,28.8,N/A,,Widespread Dust,180,2013-05-25 02:51:00
9:51 PM,82.9,37.9,20,29.76,10.0,South,8.1,-,N/A,,Scattered Clouds,170,2013-05-25 03:51:00
10:51 PM,78.1,41.0,27,29.77,10.0,East,3.5,-,N/A,,Scattered Clouds,100,2013-05-25 04:51:00
11:51 PM,77.0,44.1,31,29.76,10.0,North,3.5,-,N/A,,Scattered Clouds,360,2013-05-25 05:51:00